SCP
0 0 0 0 0 0 0 0 0 0 0 0 0 0 0 0 0 0 1 2 3 3 4 4 4 5 5 6 7 7 6 5 4 3 2 2 2 1 1 1 1 1 0 0
0 0 0 0 0 0 0 0 0 0 0 0 0 0 0 0 0 1 2 2 3 3 4 4 4 4 4 5 5 5 5 4 3 3 2 2 2 1 1 1 1 1 0 0
0 0 0 0 0 0 0 0 0 0 0 0 0 0 0 0 1 1 2 3 3 3 3 3 3 3 3 3 3 3 3 3 2 2 2 2 1 1 1 1 1 1 1 1
0 0 0 0 0 0 0 0 0 0 0 0 0 0 0 1 1 2 2 2 2 2 2 2 2 2 2 2 2 2 2 2 2 2 2 2 2 1 1 1 1 1 1 1
0 0 0 0 0 0 0 0 0 0 0 0 0 0 0 1 1 1 2 2 2 1 1 1 1 1 1 1 1 2 2 3 3 3 2 2 2 2 2 2 2 2 2 1
0 0 0 0 0 0 0 0 0 0 0 0 0 0 0 1 1 1 1 1 1 1 1 1 1 1 1 1 1 1 2 3 3 3 3 3 3 3 2 2 2 2 2 2
0 0 0 0 0 0 0 0 0 0 0 0 0 0 0 1 1 1 1 1 1 1 0 0 0 0 0 0 1 1 1 2 2 2 3 3 3 3 3 3 3 3 2 2
0 0 0 0 0 0 0 0 0 0 0 0 0 0 1 1 1 1 1 1 0 0 0 0 0 0 0 0 0 0 1 1 1 1 2 2 2 3 3 3 3 3 3 3
0 0 0 0 0 0 0 0 0 0 0 0 0 0 1 1 1 0 0 0 0 0 0 0 0 0 0 0 0 0 0 0 1 1 1 1 1 2 2 2 3 3 3 3
0 0 0 0 0 0 0 0 0 0 0 0 0 0 1 1 1 0 0 0 0 0 0 0 0 0 0 0 0 0 0 0 0 0 0 0 1 1 1 1 2 2 2 2
0 0 0 0 0 0 0 0 0 0 0 0 0 0 1 1 1 0 0 0 0 0 0 0 0 0 0 0 0 0 0 0 0 0 0 0 0 0 0 0 1 1 1 1
0 0 0 0 0 0 0 0 0 0 0 0 0 1 1 1 0 0 0 0 0 0 0 0 0 0 0 0 0 0 0 0 0 0 0 0 0 0 0 0 0 0 0 0
0 0 0 0 0 0 0 0 0 0 0 0 0 0 1 0 0 0 0 0 0 0 0 0 0 0 0 0 0 0 0 0 0 0 0 0 0 0 0 0 0 0 0 0
0 0 0 0 0 0 0 0 0 0 0 0 0 0 0 0 0 0 0 0 0 0 0 0 0 0 0 0 0 0 0 0 0 0 0 0 0 0 0 0 0 0 0 0
0 0 0 0 0 0 0 0 0 0 0 0 0 0 0 0 0 0 0 0 0 0 0 0 0 0 0 0 0 0 0 0 0 0 0 0 0 0 0 0 0 0 0 0
0 0 0 0 0 0 0 0 0 0 0 0 0 0 0 0 0 0 0 0 0 0 0 0 0 0 0 0 1 1 1 1 1 1 0 0 0 0 0 0 0 0 0 0
0 0 0 0 0 0 0 0 0 0 0 0 0 0 0 0 0 0 0 0 0 0 0 0 0 0 0 0 0 1 1 1 1 1 1 0 0 0 0 0 0 0 0 0
0 0 0 0 0 0 0 0 0 0 0 0 0 0 0 0 0 0 0 0 0 0 0 0 0 0 0 0 0 0 0 0 0 0 0 0 0 0 0 0 0 0 0 0
0 0 0 0 0 0 0 0 0 0 0 0 0 0 0 0 0 0 0 0 0 0 0 0 0 0 0 0 0 0 0 0 0 0 0 0 0 0 0 0 0 0 0 0
0 0 0 0 0 0 0 0 0 0 0 0 0 0 0 0 0 0 0 0 0 0 0 0 0 0 0 0 0 0 0 0 0 0 0 0 0 0 0 0 0 0 0 0
0 0 0 0 0 0 0 0 0 0 0 0 0 0 0 0 0 0 0 0 0 0 0 0 0 0 1 1 1 1 0 0 0 0 0 0 0 0 0 0 0 0 0 0
0 0 0 0 0 0 0 0 0 0 0 0 0 0 0 0 0 0 0 0 0 0 0 0 0 0 1 1 1 1 0 0 0 0 0 0 0 0 0 0 0 0 0 0
0 0 0 0 0 0 0 0 0 0 0 0 0 0 0 0 0 0 0 0 0 0 0 0 0 0 1 1 0 0 0 0 0 0 0 0 0 0 0 0 0 0 0 0
0 0 0 0 0 0 0 0 0 0 0 0 0 0 0 0 0 0 0 0 0 0 0 0 0 0 0 0 0 0 0 0 0 0 0 0 0 0 0 0 0 0 0 0
0 0 0 0 0 0 0 0 0 0 0 0 0 0 0 0 0 0 0 0 0 0 0 0 0 0 0 0 0 0 0 0 0 0 0 0 0 0 0 0 0 0 0 0
0 0 0 0 0 0 0 0 0 0 0 0 0 0 0 0 0 0 0 0 0 0 0 0 0 0 0 0 0 0 0 0 0 0 0 0 0 0 0 0 0 0 0 0
Wind_Speed
7 9 7 6 7 11 13 13 13 8 4 1 7 12 13 7 6 6 3 2 3 4 3 5 7 5 5 8 8 7 7 8 5 3 2 2 2 1 1 1 5 4 1 2
4 6 6 6 5 9 11 10 11 10 6 6 9 13 14 12 7 3 2 4 8 8 8 9 9 8 8 10 9 6 6 4 4 3 1 1 1 0 0 1 3 3 2 0
1 2 4 7 7 8 8 9 9 10 9 10 13 16 16 10 5 3 7 10 12 11 8 7 9 9 9 8 6 4 4 2 2 3 0 0 0 1 1 2 2 3 2 1
4 2 4 8 7 9 8 7 10 11 12 12 15 12 5 3 3 7 9 12 13 14 14 13 13 12 10 9 7 4 4 2 1 1 2 2 2 3 2 2 2 3 3 4
5 7 7 8 6 7 10 10 11 14 15 16 14 13 2 6 8 8 9 11 13 14 15 13 13 11 10 10 8 7 5 3 3 2 3 3 5 5 4 2 1 2 4 5
14 9 6 6 6 6 9 12 13 12 9 10 13 13 4 5 9 10 9 11 13 13 13 12 12 11 11 10 10 10 10 9 9 7 6 5 5 6 7 6 5 3 4 4
11 9 8 7 7 4 8 10 9 8 2 4 6 9 5 5 7 10 11 11 11 12 12 11 11 10 9 10 10 10 11 10 9 9 8 8 7 6 6 6 6 5 4 4
3 5 8 6 6 7 9 10 10 12 12 5 11 9 4 9 9 10 11 10 10 10 9 9 9 8 8 8 8 8 8 8 8 8 7 6 7 6 5 6 6 6 5 5
5 6 6 7 6 5 7 8 13 13 14 13 3 7 8 10 8 6 6 8 8 7 7 7 7 6 6 6 6 6 6 6 6 6 7 5 5 5 6 6 6 5 5 7
8 11 11 9 8 5 6 8 7 8 10 12 13 5 3 6 5 2 3 6 7 7 8 8 7 6 6 5 4 4 4 5 5 5 5 6 6 6 6 6 6 6 6 7
12 11 11 9 7 10 8 8 7 7 9 11 14 5 6 5 3 2 4 6 6 8 9 9 9 8 8 7 7 6 6 6 5 5 5 5 5 6 6 6 6 6 6 7
11 10 11 11 7 11 11 9 7 7 9 10 11 4 7 6 4 4 5 6 7 8 9 10 11 10 9 9 8 7 7 7 7 7 6 6 6 7 7 8 7 7 8 8
9 7 11 6 1 3 8 8 8 8 8 10 10 3 2 1 2 4 6 8 9 10 11 11 11 9 8 8 8 8 9 9 8 8 8 8 8 8 8 9 8 8 9 9
3 7 10 14 15 12 11 9 8 8 7 10 12 7 1 2 5 7 10 11 12 13 13 13 10 8 7 7 8 9 10 9 10 9 8 8 9 9 10 9 9 9 9 9
4 9 13 16 17 15 12 9 9 9 10 10 13 12 6 4 7 10 12 13 15 17 17 13 9 8 8 8 7 8 8 8 8 8 9 9 9 9 9 9 10 10 11 12
9 10 14 16 15 12 8 10 9 9 10 12 14 13 6 6 8 11 14 17 20 19 15 13 13 12 11 10 10 10 9 8 8 9 9 9 8 8 8 8 9 10 10 9
9 12 13 13 14 11 6 11 10 11 11 13 16 14 12 12 14 16 17 20 18 15 16 17 16 12 10 10 9 9 9 8 8 8 9 9 9 9 9 11 10 8 8 8
5 8 7 11 12 7 7 7 9 10 12 16 13 12 14 16 18 17 17 15 16 20 20 17 16 15 14 12 12 10 12 10 10 9 9 9 9 9 8 9 8 7 7 7
2 4 8 7 12 4 6 7 10 13 16 12 13 16 19 21 21 18 16 19 20 19 16 15 17 18 15 15 14 11 11 11 11 11 10 9 9 10 9 9 8 7 6 7
6 7 7 8 11 10 6 9 12 14 10 13 18 19 21 22 19 16 19 21 20 18 16 15 17 17 14 13 12 11 13 12 12 12 11 10 10 11 11 10 9 8 7 7
9 9 7 9 11 5 8 13 16 12 13 18 19 20 21 20 19 20 22 21 19 18 18 16 15 13 11 10 10 11 13 13 12 12 12 11 10 10 11 11 9 9 8 9
7 7 8 8 10 6 11 12 11 12 14 17 19 20 20 21 22 22 22 20 19 19 19 19 13 12 10 10 10 12 12 12 12 12 13 13 11 12 13 9 8 8 8 8
4 6 5 6 7 8 8 10 11 14 16 17 19 20 21 22 23 23 22 19 19 19 17 16 15 13 11 10 10 13 13 12 14 14 15 14 14 12 11 11 10 9 8 7
6 2 5 7 8 11 12 13 15 16 17 18 20 21 22 23 24 24 21 19 18 18 17 15 15 16 15 14 14 13 14 14 14 15 14 13 12 12 11 9 8 8 8 7
3 5 7 9 11 13 12 15 17 17 18 19 20 21 22 23 23 22 19 18 17 17 15 15 15 16 18 17 16 16 15 14 15 15 14 13 12 11 10 9 8 9 7 6
5 6 6 8 11 12 15 16 17 18 19 20 21 21 22 21 22 22 20 17 17 18 17 17 17 18 19 19 18 17 15 14 14 13 13 10 9 8 8 8 8 10 9 8
Wind_Direction
245 251 275 336 335 321 315 313 313 318 56 41 280 285 288 283 265 273 294 346 42 61 30 57 51 45 64 81 90 110 114 115 127 141 169 164 156 192 149 128 109 102 82 32
267 307 351 353 311 286 284 290 294 304 322 295 280 276 275 271 257 266 322 46 62 62 36 38 47 47 56 62 57 72 84 108 125 111 106 83 94 226 234 86 129 152 157 102
295 238 301 284 285 294 301 316 319 319 314 288 274 265 258 254 241 94 54 50 51 52 56 47 45 42 47 59 66 71 76 78 60 91 179 182 85 307 265 229 184 153 146 204
316 296 297 299 308 304 309 329 314 300 288 278 277 280 267 176 122 85 67 59 55 51 42 45 51 46 37 38 36 36 88 85 58 28 305 299 269 261 252 220 200 149 192 214
298 285 288 292 306 302 304 307 290 283 279 277 278 276 237 120 114 79 66 68 68 65 59 47 51 51 45 38 34 18 33 40 25 350 316 312 295 290 289 287 233 175 231 216
306 289 286 296 296 301 305 298 286 284 296 304 329 326 266 145 136 125 104 83 76 73 71 61 56 51 47 43 36 31 28 31 23 11 351 332 310 304 305 311 308 283 258 234
300 324 313 290 299 325 310 299 297 298 276 229 240 272 263 123 109 108 101 88 80 76 73 69 61 53 50 44 37 36 29 27 25 22 13 4 353 329 311 306 298 291 286 281
304 289 268 276 308 321 308 298 299 307 306 271 198 214 129 83 77 84 89 86 77 75 74 71 65 59 49 45 38 34 31 25 18 17 8 10 7 354 342 339 323 312 309 310
304 305 296 297 289 289 299 314 322 312 305 308 276 111 89 71 52 50 72 77 64 53 51 52 49 42 36 31 33 26 22 12 4 360 348 353 4 350 345 338 329 327 325 314
310 313 311 304 283 260 272 305 316 317 318 317 318 54 136 139 145 131 41 42 36 21 15 14 10 8 4 355 359 4 356 346 335 333 333 337 344 333 333 326 326 329 328 324
326 312 305 311 325 320 306 304 318 315 316 316 314 18 77 103 94 74 60 40 20 0 354 347 342 340 334 329 335 344 337 327 320 318 317 315 311 315 314 307 309 316 315 313
342 331 318 316 341 331 314 310 313 309 309 305 308 51 49 63 52 33 14 360 350 339 330 326 323 322 320 320 321 319 313 306 301 300 296 291 292 294 292 292 299 301 300 299
347 327 309 314 9 272 282 295 313 319 314 315 324 36 96 80 36 15 348 338 331 325 318 312 306 302 300 299 296 292 287 282 279 277 276 276 277 277 276 277 278 279 281 283
282 291 296 308 316 320 313 322 346 347 335 330 336 357 346 325 341 342 335 326 319 315 311 307 303 297 292 285 279 275 275 273 271 264 262 262 262 263 264 265 266 268 269 273
326 313 321 315 313 316 318 339 3 3 349 334 331 336 348 345 334 328 324 324 321 316 313 317 320 318 310 302 292 288 284 279 276 271 267 265 262 260 259 259 260 261 260 264
344 320 312 306 310 314 341 23 10 358 347 335 325 326 352 336 329 327 329 326 316 314 323 328 322 317 312 307 301 294 288 282 272 268 269 269 267 268 267 266 264 261 260 262
348 340 323 308 310 308 43 24 8 352 344 336 322 330 347 336 330 329 328 315 315 334 330 320 315 310 303 299 293 287 289 285 283 279 277 276 273 273 271 275 277 276 280 282
5 339 312 303 319 354 68 33 7 340 331 330 334 351 342 329 327 324 313 324 339 328 320 316 312 308 302 299 297 294 293 288 283 279 278 276 274 274 272 272 273 274 277 281
68 334 313 324 335 5 103 37 1 335 321 9 358 340 332 330 320 312 330 337 323 316 314 312 308 304 301 298 295 290 290 289 286 284 280 279 277 277 273 272 272 273 271 273
7 332 304 325 325 334 55 12 346 319 300 17 347 335 331 326 317 321 328 319 315 316 311 304 301 298 295 295 295 292 290 288 286 286 284 283 278 277 275 274 273 272 267 266
342 332 337 333 318 16 30 351 342 324 334 340 332 328 325 322 314 313 316 316 314 309 306 303 299 297 295 294 290 285 288 288 289 291 292 289 284 280 274 268 264 263 264 265
340 342 354 334 324 13 7 350 347 324 325 328 327 325 320 316 314 313 313 313 311 309 308 307 303 298 294 294 295 297 297 297 297 294 290 285 279 276 276 268 265 263 260 261
25 42 336 333 319 340 351 340 339 339 332 328 325 322 319 316 314 314 314 312 311 311 310 310 308 306 310 317 317 307 303 300 296 290 284 280 276 269 266 264 263 261 256 252
99 59 312 316 318 348 347 347 344 339 329 325 323 320 317 315 315 315 314 314 314 315 317 319 320 321 321 318 312 302 298 293 289 285 283 279 274 268 263 255 251 249 247 245
347 343 333 313 348 340 336 342 335 328 327 323 320 319 318 317 316 317 317 318 321 323 327 329 327 322 316 312 304 299 294 290 285 282 279 277 271 266 262 257 246 244 241 238
50 33 347 330 341 326 325 331 329 329 325 323 322 321 320 320 320 322 322 326 328 329 330 328 323 317 311 307 301 298 292 285 280 278 275 269 263 259 253 251 252 234 228 219